Tracking 30995 objects as of 7-Jul-2025
HD Live streaming from Space Station
objects crossing your sky now

DELTA 1 DEB

Track DELTA 1 DEB now!
10-day predictions


NORAD ID: 42563
Int'l Code: 1972-058JW
Perigee: 807.1 km
Apogee: 1,172.2 km
Inclination: 98.8 °
Period: 104.7 minutes
Semi major axis: 7360 km
RCS: Unknown
Launch date: July 23, 1972
Source: United States (US)
Launch site: AIR FORCE WESTERN TEST RANGE (AFWTR)

Note: This is SATELLITE DEBRIS
Your satellite tracking list
Your tracking list is empty




NASA's NSSDC Master Catalog

Two Line Element Set (TLE):
1 42563U 72058JW  25187.20663666  .00000377  00000-0  35182-3 0  9999
2 42563  98.7942 327.3419 0248042 261.5862  95.7104 13.74766594576163
Source of the keplerian elements: AFSPC